GFSFLT2_250_spd_159.txt.gz
Wind_Speed
43 46 46 47 45 46 39 43 43 41 41 39 34 30 30 30 29 31 29 29 29 29 30 30 29 28 26 25 25 23 19 19
46 47 48 47 47 48 42 42 44 41 42 42 39 34 33 34 32 31 32 32 33 32 33 32 29 27 27 26 24 22 20 18
49 49 50 51 48 48 45 43 44 43 41 40 39 40 38 38 37 36 39 37 37 39 37 34 30 30 29 28 27 24 23 20
48 49 51 49 47 46 47 43 45 45 44 45 45 44 41 42 45 42 44 43 44 41 39 41 38 34 33 30 25 25 27 24
51 51 50 53 49 47 45 46 45 47 49 48 47 46 46 43 46 47 48 45 43 37 37 39 40 40 37 35 31 29 29 27
52 54 54 51 47 49 49 50 49 47 48 50 50 49 47 48 48 49 48 48 49 44 41 39 38 38 44 41 38 33 33 31
58 56 58 54 53 47 51 52 52 51 50 50 49 49 50 49 50 49 51 50 52 50 45 44 42 42 40 43 42 40 36 36
59 62 61 61 56 53 51 52 53 53 55 53 56 54 54 53 53 53 53 53 54 57 57 53 50 47 45 41 42 44 43 42
59 63 59 57 54 52 54 53 55 57 58 55 54 55 56 57 58 57 57 58 59 60 59 58 57 55 51 49 45 43 47 46
60 58 59 57 54 54 52 54 54 56 59 61 62 61 61 61 61 63 63 63 61 62 64 61 61 63 62 58 52 47 47 50
66 62 63 59 57 58 53 52 54 52 56 61 64 67 66 66 65 66 68 68 66 65 65 66 66 66 68 68 62 57 55 54
69 69 65 62 63 60 61 57 52 52 53 53 52 59 68 70 71 71 70 72 75 73 71 70 69 73 73 74 74 68 62 60
69 72 65 64 62 63 63 60 59 58 57 56 57 57 56 58 69 76 76 78 81 80 80 77 77 79 78 80 80 78 74 68
75 73 67 68 67 70 65 66 62 59 60 65 64 64 63 63 63 68 73 81 84 85 88 88 87 88 87 87 83 84 81 81
76 75 72 69 70 71 72 69 69 69 71 70 69 72 72 70 70 70 74 79 81 88 93 96 94 96 96 94 93 89 88 85
77 76 74 75 76 74 74 78 79 80 80 79 78 78 79 79 75 72 74 78 84 89 91 96 100 103 103 106 99 96 95 92
82 81 81 81 80 78 78 81 82 85 86 87 87 85 83 82 81 78 77 77 79 85 92 99 103 101 105 111 107 104 99 99
84 86 85 86 86 84 82 82 86 90 90 90 90 88 86 83 84 84 81 83 85 88 93 98 103 103 102 105 107 107 107 103
89 89 89 89 88 88 89 91 93 93 95 95 91 90 88 84 85 86 86 87 87 89 91 96 96 99 99 95 93 93 106 114
90 87 87 89 90 93 96 95 97 98 97 96 94 92 91 91 91 91 89 87 87 87 87 84 80 86 86 86 86 85 92 106

GFSFLT2_250_spd_162.txt.gz
Wind_Speed
46 44 48 47 45 45 46 49 50 50 46 47 44 42 39 36 33 33 34 31 28 26 25 24 26 27 30 32 31 29 28 26
48 48 47 46 47 46 47 49 48 49 48 43 45 44 40 38 34 34 38 36 32 28 30 29 26 28 30 31 30 28 27 25
43 42 43 46 46 47 48 48 48 50 49 43 42 44 41 41 38 37 41 37 39 38 36 36 32 29 33 31 31 28 30 28
43 43 41 41 45 46 47 47 46 46 47 50 43 44 45 43 44 45 44 47 45 44 44 41 41 39 36 35 34 32 30 29
44 45 45 45 48 48 48 48 45 43 46 49 46 45 48 49 49 48 48 50 48 50 50 46 44 41 31 32 33 34 34 31
51 50 52 53 54 53 51 47 48 48 46 47 48 45 50 50 50 49 49 50 54 52 51 51 46 42 34 30 28 30 35 40
58 58 59 58 60 60 55 56 54 49 49 51 49 47 47 48 51 52 50 48 52 56 55 51 52 47 43 37 41 23 31 47
62 64 63 64 65 65 63 64 59 55 49 49 50 50 52 48 51 56 56 57 53 53 56 56 54 54 50 47 47 45 40 35
66 67 65 66 68 67 68 62 60 54 52 51 49 53 53 58 55 53 60 63 61 58 57 60 60 59 58 53 52 55 58 56
74 70 68 69 72 74 72 62 63 63 57 51 56 56 55 56 57 60 60 58 61 64 64 63 61 65 65 64 62 63 61 59
73 72 74 74 74 72 71 64 68 63 58 58 53 55 58 58 58 60 62 65 68 67 67 68 68 67 68 69 70 67 71 69
65 63 65 65 62 64 64 67 72 68 65 63 59 58 58 59 61 60 60 62 66 70 74 75 73 73 72 74 73 75 73 76
70 69 67 66 67 70 71 70 71 70 69 66 62 63 65 62 60 61 64 68 67 67 71 74 79 81 79 78 79 79 80 79
79 78 76 76 74 73 72 72 73 72 69 67 68 70 71 65 64 63 61 61 67 71 75 76 80 82 84 85 86 87 83 82
83 82 81 78 77 79 77 75 75 75 75 77 78 78 73 71 72 75 74 72 71 70 74 81 84 86 86 88 90 93 95 92
87 84 82 81 81 83 82 81 77 79 80 81 83 83 81 80 82 81 81 82 80 78 77 77 83 91 93 93 91 94 99 99
90 89 88 88 86 84 84 81 83 85 87 87 88 88 88 85 85 87 90 89 85 82 82 81 79 86 91 95 100 97 98 101
90 90 91 87 86 89 91 90 90 91 91 89 87 87 87 90 94 95 95 93 89 86 85 84 84 83 88 94 97 101 106 102
99 100 98 96 92 95 94 94 92 93 88 87 89 92 93 95 96 99 100 96 91 87 85 86 85 86 88 91 97 101 102 106
107 104 97 94 92 94 96 96 91 94 93 92 94 96 98 100 106 106 103 98 93 89 87 85 86 89 90 92 92 96 102 98

GFSFLT2_250_spd_165.txt.gz
Wind_Speed
51 50 51 50 51 50 50 47 47 48 48 50 52 51 52 51 45 41 37 35 36 31 28 27 25 26 26 25 25 27 28 29
56 53 49 45 44 44 43 45 42 42 46 47 51 51 53 51 48 43 39 40 36 33 35 32 28 28 30 28 26 27 25 27
53 51 48 47 45 44 46 43 45 47 47 48 46 50 48 50 47 45 43 39 40 42 40 39 36 36 35 33 29 28 32 27
53 50 51 51 46 46 46 45 46 49 46 45 43 45 47 49 48 47 45 44 42 43 46 50 51 42 39 37 35 31 36 31
51 49 49 49 51 49 48 52 55 56 52 49 46 41 44 51 53 48 46 49 49 49 47 49 51 53 50 44 39 37 37 36
48 49 51 53 54 56 58 60 60 62 62 56 53 48 44 47 52 51 48 49 51 50 49 47 51 53 52 51 45 43 37 34
50 51 54 55 57 59 61 63 62 64 64 61 59 55 54 49 49 53 53 50 49 50 49 49 46 48 54 51 49 44 45 36
54 53 53 56 60 65 66 66 63 64 64 62 61 62 61 54 43 50 52 53 53 53 51 52 52 50 49 52 51 50 51 47
58 61 60 61 61 69 70 67 66 67 68 66 65 61 60 57 55 52 53 51 52 58 58 56 59 59 55 50 52 54 58 56
65 66 67 66 69 65 66 64 63 61 62 62 63 60 64 59 57 59 50 56 56 55 59 62 60 62 63 61 56 56 62 63
68 68 67 68 67 66 61 60 61 60 59 60 62 64 67 67 64 60 55 56 57 61 62 61 67 65 63 64 66 63 63 68
78 79 77 73 72 74 73 71 70 70 68 68 68 68 68 69 67 65 64 58 57 60 66 69 67 66 71 72 73 73 71 68
81 81 80 77 76 78 78 77 75 75 75 74 71 68 71 72 68 66 67 64 65 65 66 71 73 71 69 71 78 79 77 77
82 83 85 85 85 84 82 79 78 75 75 72 71 72 73 73 72 70 70 71 74 72 70 68 75 75 77 78 76 80 84 86
86 86 86 85 85 85 85 83 82 81 79 77 78 75 77 76 76 76 76 77 77 78 78 76 74 78 75 75 84 82 85 87
89 87 87 87 87 89 89 87 87 86 83 82 84 81 81 85 82 80 80 83 84 85 84 83 81 81 83 80 81 85 92 90
92 89 90 90 90 92 93 93 93 91 88 90 92 93 84 88 88 89 87 85 84 83 83 83 85 87 87 87 86 87 89 95
103 101 102 98 97 97 98 98 97 97 99 96 96 97 90 87 90 89 89 89 88 86 85 86 88 89 90 94 90 90 93 93
106 106 105 105 102 102 101 102 102 101 102 102 100 96 93 95 95 96 95 93 92 90 89 90 92 95 98 97 91 89 91 94
87 88 93 94 96 96 98 98 99 99 98 99 95 94 94 96 97 99 100 99 96 95 96 96 98 102 101 92 91 90 90 92

GFSFLT2_250_spd_171.txt.gz
Wind_Speed
44 45 46 47 48 48 49 50 52 52 53 51 51 49 49 48 48 49 46 45 45 46 45 46 44 41 41 38 31 31 30 33
43 46 46 49 52 52 52 54 56 55 54 52 50 50 50 49 48 50 48 49 51 49 49 45 44 44 42 44 40 35 33 33
42 46 48 49 52 56 57 56 53 53 52 51 50 52 51 52 53 53 55 54 57 55 52 49 47 44 43 45 44 42 43 39
46 48 51 53 53 52 51 52 52 52 53 52 50 52 54 57 58 59 60 60 61 60 57 54 48 46 42 44 48 45 45 43
41 41 43 46 46 47 51 53 54 53 52 52 54 55 56 57 59 61 61 60 58 59 55 53 50 46 42 42 47 52 51 51
40 41 44 46 46 51 53 52 52 52 53 55 58 57 57 60 63 67 65 66 65 60 54 50 43 40 37 40 45 51 56 55
44 43 46 51 56 58 56 58 61 62 62 62 64 66 66 62 64 65 63 65 61 55 50 48 48 49 46 45 38 46 54 58
44 44 45 45 46 50 55 58 63 64 63 62 65 67 66 66 62 58 59 61 60 60 56 55 53 53 50 46 46 44 51 56
49 51 52 53 54 56 58 63 64 62 64 66 69 70 69 68 66 65 65 65 59 61 61 61 59 58 57 54 51 46 47 55
60 59 61 62 62 64 67 68 65 67 70 70 72 71 71 72 73 72 71 68 64 61 60 58 62 65 63 61 59 55 53 53
70 70 70 70 70 73 76 73 72 72 74 75 77 79 78 77 77 78 75 73 70 68 66 64 60 60 62 60 58 56 58 54
75 74 75 77 77 78 80 81 80 79 79 78 80 80 82 84 84 82 80 78 74 72 70 68 68 66 62 60 58 58 58 61
76 78 84 84 84 85 88 87 86 86 83 82 83 86 87 86 87 86 87 86 82 78 75 74 72 72 71 69 64 60 57 57
86 88 89 92 94 90 89 89 91 91 93 95 96 97 93 94 95 93 95 92 88 84 81 79 78 76 76 76 76 71 66 62
93 94 98 97 99 102 104 101 99 104 109 116 115 111 112 113 107 103 99 97 90 91 88 86 83 83 82 77 76 78 74 75
95 96 100 104 108 110 111 115 121 118 106 97 98 101 103 101 95 97 99 97 97 93 93 91 91 90 86 85 82 82 83 78
102 105 108 110 115 119 122 125 125 110 95 87 83 88 91 94 92 93 95 98 99 96 95 95 95 94 93 92 91 90 88 83
108 113 116 120 123 126 128 127 116 101 93 86 84 86 88 89 91 93 95 96 98 99 99 98 99 99 99 98 98 98 95 92
116 119 122 123 125 133 123 111 100 95 90 85 83 83 84 85 88 90 90 94 95 97 100 101 102 101 100 100 100 101 98 97
120 123 122 123 131 116 104 97 92 86 83 82 78 79 81 82 84 85 87 88 89 91 94 96 97 98 101 102 101 99 98 96